Wetbulb
43.64 39.40 39.30 42.04 46.48 46.47 46.34 45.20 44.26 47.64 49.96 48.93 48.28 48.37 48.83 52.15 51.98 52.35 52.80 53.72 54.41 55.66 57.54 59.63 62.79 71.73 75.73 75.90 75.37 76.37 75.49 76.51 75.80 75.72 74.13 73.90 73.15 75.96 76.14 75.89 76.48 76.58 76.95 76.51
39.11 35.25 42.21 46.09 46.71 46.51 45.58 44.62 44.57 47.64 49.87 49.11 48.86 47.66 50.38 51.53 52.06 52.99 53.40 53.94 54.99 55.77 56.61 58.73 63.79 71.90 75.03 72.51 75.30 75.40 75.32 76.00 76.62 75.19 75.29 75.40 74.62 75.88 75.38 76.24 74.97 75.19 75.71 76.08
36.75 39.61 43.32 44.40 43.72 43.83 44.98 43.97 45.24 46.05 48.57 49.44 48.29 45.80 48.14 51.14 52.66 53.19 54.47 55.48 56.02 56.06 56.13 58.74 65.30 70.54 74.69 72.50 71.78 73.37 75.39 75.83 76.09 76.72 76.16 75.46 75.48 74.85 74.25 73.71 74.02 75.09 74.44 74.78
38.68 43.41 41.03 40.96 41.99 44.72 41.44 47.46 47.12 46.85 46.25 42.43 48.52 39.25 47.30 49.79 50.27 52.12 53.76 54.54 55.44 56.13 57.87 60.12 65.41 68.81 73.54 73.87 74.04 74.03 75.33 75.33 74.94 76.19 74.88 74.07 72.75 70.69 72.24 73.57 74.23 74.42 73.82 73.38
36.97 40.86 40.17 38.35 40.60 45.01 44.07 48.15 47.05 46.94 45.85 45.97 45.11 41.61 46.34 49.76 48.92 50.84 53.08 54.47 55.55 56.72 57.39 58.52 66.05 69.67 72.86 73.39 73.17 73.72 74.02 73.81 75.14 75.66 74.81 72.96 72.80 72.61 72.70 73.01 72.34 71.18 70.43 71.22
40.91 45.20 43.43 41.96 42.89 44.21 47.79 46.58 46.49 47.08 45.80 39.65 44.27 42.34 43.08 46.89 49.47 51.57 53.28 54.12 55.70 56.22 57.06 60.63 65.86 70.37 72.47 72.96 72.77 72.89 72.29 72.87 73.99 74.72 74.91 74.05 72.85 71.30 70.65 70.65 70.45 69.33 68.59 67.16
38.59 39.87 43.44 45.05 41.16 43.72 43.67 42.63 37.14 36.25 36.67 37.30 45.94 43.04 45.58 50.90 52.46 52.98 52.82 53.87 55.70 56.91 56.60 61.09 64.46 66.89 71.57 72.04 72.35 71.85 71.19 71.36 70.85 72.47 73.71 74.06 72.74 72.70 71.46 70.79 69.71 68.16 65.67 64.04
32.20 31.80 39.81 43.86 40.95 40.85 41.64 42.38 35.70 31.32 32.47 38.17 45.62 41.21 45.64 52.82 55.19 54.58 54.57 54.76 55.96 56.31 57.27 58.99 64.94 66.60 69.53 68.38 69.33 69.15 68.44 67.96 70.25 71.10 71.40 71.48 70.66 69.93 66.90 66.23 65.98 64.64 63.03 62.54
33.30 34.93 42.11 43.54 44.90 44.36 41.01 38.65 45.72 41.45 42.98 39.62 42.92 45.81 51.35 53.86 53.61 53.75 53.53 54.41 54.96 56.81 58.35 60.09 64.66 66.83 68.34 66.44 68.92 67.05 66.27 66.42 67.56 67.62 66.67 64.95 65.60 64.95 64.67 65.22 63.40 61.72 63.29 61.59
39.33 34.54 41.37 43.04 45.78 45.47 43.91 46.82 38.60 41.80 34.61 34.47 40.75 42.37 44.67 50.32 52.37 53.39 53.99 56.02 58.49 61.28 63.17 64.06 65.70 64.89 64.73 65.07 65.11 65.04 64.95 64.27 64.83 65.07 65.00 63.71 63.14 62.88 62.27 61.57 60.97 61.70 62.24 61.72
39.35 39.93 38.43 42.66 41.29 39.17 41.62 40.71 44.03 44.66 43.37 38.21 36.85 41.61 53.09 52.76 53.95 54.04 56.13 57.90 58.80 59.89 61.38 63.60 63.62 64.21 64.36 63.76 63.54 63.52 63.32 62.83 62.49 62.72 62.38 61.68 61.21 61.37 61.32 60.49 60.64 61.18 61.59 60.60
42.51 39.86 36.18 38.32 45.05 46.78 45.65 43.59 44.79 40.16 39.00 41.71 41.31 42.79 53.98 55.63 55.43 55.33 55.15 57.86 59.25 61.46 62.14 62.42 63.04 62.79 61.83 61.65 61.74 61.63 61.78 61.27 61.46 61.32 60.85 60.39 60.35 60.43 60.01 59.62 59.96 60.49 59.68 59.83
42.20 37.89 33.87 35.54 41.20 45.24 41.88 44.69 45.54 46.44 46.45 41.88 38.40 41.99 52.41 54.93 53.46 53.90 54.30 56.43 57.87 59.33 60.03 60.93 60.31 60.31 60.07 59.96 59.91 59.86 59.96 59.71 59.94 59.84 59.41 59.38 59.18 58.66 58.76 58.92 59.33 59.15 59.04 58.83
42.84 37.90 38.11 33.30 37.15 41.30 38.48 41.26 44.90 46.04 40.69 41.55 40.80 43.87 47.78 50.07 51.02 53.68 54.60 56.31 57.25 57.76 57.48 57.61 57.51 57.63 58.27 58.49 58.41 58.42 58.46 59.03 58.68 58.24 57.75 57.39 57.55 57.66 57.85 58.46 58.43 58.11 58.40 58.21
42.40 37.49 40.71 41.99 42.36 42.84 42.48 41.48 43.92 43.25 44.95 40.75 43.53 43.87 46.56 49.57 51.13 52.50 53.68 53.90 54.20 54.95 55.06 55.02 55.01 55.23 55.83 56.04 56.36 56.46 56.58 56.84 57.10 56.07 55.73 56.22 57.13 57.22 56.89 57.12 57.64 58.34 58.24 57.44
43.29 38.36 42.24 40.13 42.37 42.39 39.85 42.84 43.54 44.97 45.37 46.46 45.61 44.09 49.56 50.10 51.20 50.65 51.74 52.16 52.15 52.29 52.98 53.41 53.81 54.08 54.12 54.12 53.66 54.52 54.86 54.96 55.57 54.77 54.00 55.08 55.70 55.86 55.87 56.80 57.15 56.85 56.53 56.30
36.83 40.23 40.59 36.36 41.38 40.82 33.55 41.27 44.30 45.71 46.35 47.67 42.89 45.47 48.04 47.41 48.51 49.84 50.41 51.32 51.20 51.46 51.87 52.13 52.57 52.99 53.28 53.35 53.64 52.83 53.76 54.42 54.12 53.35 53.26 53.40 54.63 53.96 54.62 55.49 54.70 54.76 54.76 56.10
38.87 40.86 40.48 37.69 38.95 28.96 42.92 47.32 48.60 47.67 48.81 49.30 47.25 46.71 47.59 48.44 50.50 51.91 52.22 51.19 50.63 50.74 50.80 51.24 51.56 51.98 52.65 52.70 53.10 53.47 53.32 53.33 52.35 52.25 51.90 52.25 52.34 52.75 53.50 53.46 53.52 54.66 55.77 56.06
44.42 43.25 39.77 35.98 36.42 40.12 42.46 43.43 44.56 44.09 45.07 49.28 47.16 46.89 47.24 48.81 49.62 48.32 50.78 50.81 50.11 50.28 50.83 50.88 51.00 50.90 52.16 52.10 53.04 52.81 52.25 51.99 50.96 50.42 50.43 51.19 51.54 50.96 50.98 50.66 52.52 53.48 54.59 54.70
45.25 43.71 41.51 39.98 35.09 32.06 36.63 41.42 46.49 50.02 38.39 47.60 48.54 46.80 46.57 46.61 39.69 41.84 46.82 48.09 48.31 49.72 49.91 49.18 49.56 50.02 50.84 51.66 52.83 51.20 49.90 49.43 49.03 49.56 50.31 51.06 50.79 50.06 49.74 51.20 52.52 53.02 54.03 54.03
36.34 37.17 37.94 38.15 34.84 35.65 38.77 39.79 44.36 38.93 39.17 47.52 48.48 47.34 46.54 43.68 45.20 46.09 47.62 46.87 47.34 47.34 47.39 48.18 47.81 47.14 49.29 51.08 50.84 48.84 48.38 47.70 49.50 50.40 50.35 50.04 50.50 51.38 51.98 52.10 52.71 51.49 52.49 53.48
31.77 30.85 30.19 37.55 34.79 30.81 37.74 44.24 44.07 45.22 47.47 47.39 47.53 48.13 45.40 45.61 46.33 45.94 45.64 44.64 44.10 44.06 44.48 45.85 45.05 45.08 47.70 49.60 48.01 46.14 45.89 48.03 48.69 48.79 48.07 47.89 49.21 49.57 50.27 50.45 51.26 50.94 51.71 51.33
30.54 32.94 29.77 29.16 28.61 34.79 38.21 42.92 51.06 51.22 47.27 46.83 45.09 47.07 47.36 45.59 44.35 44.78 43.54 43.71 44.06 44.54 44.73 45.55 44.37 44.22 45.06 45.35 45.60 43.87 44.77 46.60 47.14 46.49 45.58 45.76 47.09 47.74 48.50 48.37 48.66 47.45 48.42 48.34
32.76 35.07 32.86 33.29 31.73 33.32 35.99 40.09 45.75 48.24 46.52 46.42 46.29 46.12 45.43 42.82 42.15 40.68 40.91 42.23 43.52 43.94 43.67 44.27 43.72 42.84 42.54 43.43 43.75 43.56 44.07 45.65 45.28 44.56 43.73 44.22 45.21 45.41 46.81 46.57 45.91 44.14 43.11 44.52
30.19 32.92 32.42 30.61 33.23 36.14 34.63 36.86 39.99 43.85 46.02 46.86 46.99 45.58 43.45 42.55 40.80 40.62 40.98 41.34 41.22 40.99 41.72 42.48 42.26 42.79 42.28 42.71 42.29 42.50 42.48 43.25 42.98 42.51 41.74 41.36 42.86 42.89 43.11 40.34 39.13 40.87 38.45 37.41
32.43 30.58 29.96 26.96 32.45 32.00 32.16 36.76 38.65 37.96 39.92 42.84 43.39 42.85 43.32 42.89 41.74 42.02 40.75 41.59 40.94 39.82 40.88 41.01 42.08 42.83 42.67 41.88 41.28 41.66 41.91 41.35 40.58 39.14 39.29 38.83 40.60 41.01 41.31 41.73 38.67 36.43 36.74 36.09
MSLP
1002.42 1001.70 999.48 998.83 997.77 996.75 995.71 994.75 994.05 993.69 994.07 993.95 993.98 994.63 994.83 994.29 994.75 995.05 995.95 996.57 997.19 997.18 997.48 997.89 998.15 998.60 999.71 1000.31 1001.29 1001.73 1001.94 1002.63 1004.85 1005.54 1006.29 1007.53 1008.25 1008.76 1008.96 1009.01 1009.15 1009.56 1010.21 1010.29
1001.95 1001.07 1000.13 998.84 998.07 996.91 995.56 994.54 993.91 993.79 993.19 993.70 993.43 993.77 994.19 994.37 994.17 994.41 994.94 995.77 996.39 996.92 997.21 997.58 998.02 998.63 999.52 1001.05 1002.58 1003.64 1004.11 1004.88 1004.85 1005.28 1005.93 1007.05 1007.91 1008.66 1009.19 1009.65 1009.80 1009.94 1010.20 1010.35
1001.70 1000.16 999.97 998.32 997.65 996.81 995.66 994.30 993.37 992.76 992.76 992.85 992.99 993.70 993.80 993.62 994.11 994.01 994.06 994.96 995.71 996.28 996.82 997.23 997.88 998.74 1000.03 1001.62 1002.99 1003.36 1004.65 1004.41 1004.87 1005.70 1006.38 1007.21 1008.05 1008.86 1009.55 1009.98 1010.18 1010.36 1010.56 1010.81
1001.80 1000.10 999.08 998.19 996.94 996.53 995.29 994.91 994.20 993.07 992.39 992.08 992.41 992.83 993.34 993.27 993.37 993.51 993.51 994.33 994.91 995.77 996.34 996.93 997.73 998.79 999.99 1001.22 1002.86 1004.47 1004.72 1004.34 1005.40 1006.53 1006.50 1007.09 1007.85 1008.91 1009.77 1009.95 1010.38 1010.81 1010.98 1011.26
1001.09 999.71 998.85 997.76 997.01 996.09 994.71 995.01 994.45 993.54 992.86 992.55 992.47 993.32 992.06 992.80 992.51 992.73 993.27 993.80 994.47 995.24 996.09 996.80 997.79 998.87 999.72 1000.43 1002.16 1003.58 1004.37 1005.29 1006.12 1006.41 1006.37 1007.34 1008.25 1008.91 1009.69 1010.22 1010.86 1011.26 1011.54 1011.63
1000.45 999.28 998.25 996.79 997.10 996.22 995.37 994.60 994.54 994.05 993.46 992.35 992.21 992.77 991.76 991.45 990.75 991.85 992.79 993.55 994.03 994.85 995.75 996.63 997.77 999.01 1000.03 1001.03 1002.30 1003.65 1004.78 1005.50 1005.97 1006.16 1006.71 1007.55 1008.33 1009.00 1009.73 1010.36 1010.85 1011.46 1011.97 1012.62
999.92 998.37 997.64 997.47 996.54 995.70 995.22 994.39 993.74 993.61 993.17 992.63 992.48 992.15 990.33 990.06 990.93 991.35 992.39 993.31 993.91 994.61 995.41 996.38 997.77 999.29 1000.85 1001.96 1003.37 1004.30 1005.14 1005.89 1006.57 1007.14 1007.55 1007.97 1008.59 1009.06 1009.73 1010.15 1010.62 1011.39 1012.29 1013.09
999.81 997.19 996.20 997.28 997.44 995.49 994.35 994.13 994.59 992.86 993.93 993.05 993.29 991.53 990.34 990.29 990.52 991.03 992.42 993.55 994.05 994.77 995.46 996.59 998.10 999.71 1001.26 1002.79 1004.37 1005.57 1006.41 1007.17 1007.50 1007.98 1008.47 1008.66 1008.81 1009.60 1010.60 1010.91 1011.21 1011.84 1012.66 1013.53
999.91 996.54 994.72 995.65 995.97 996.12 993.98 993.85 994.77 993.76 993.15 992.63 992.48 992.49 991.61 991.30 990.25 991.17 992.54 993.85 994.60 995.35 996.48 997.61 999.24 1000.70 1001.87 1003.57 1005.16 1006.41 1007.44 1008.17 1008.37 1008.79 1009.31 1009.83 1010.14 1010.65 1011.35 1011.66 1012.17 1012.88 1013.21 1013.67
1000.95 997.77 994.40 994.54 995.29 995.58 994.01 993.79 994.44 993.83 992.34 991.69 991.23 992.01 992.03 992.61 992.54 992.22 993.65 995.03 995.79 996.59 997.79 999.15 1000.67 1002.41 1003.97 1005.00 1006.41 1007.54 1008.20 1008.76 1009.12 1009.49 1010.03 1010.48 1011.08 1011.81 1012.35 1012.72 1013.19 1013.49 1013.75 1013.83
1001.96 999.32 995.01 994.64 994.42 995.06 994.00 993.30 993.80 993.63 992.13 991.49 991.29 991.88 992.13 993.71 994.91 995.65 996.38 997.20 997.85 998.68 999.69 1000.87 1002.59 1003.86 1004.99 1006.20 1007.80 1008.33 1008.92 1009.45 1010.01 1010.57 1011.05 1011.56 1012.08 1012.59 1012.92 1013.22 1013.61 1013.90 1014.02 1013.95
1001.95 1000.28 996.57 994.33 994.03 994.60 993.97 993.51 993.44 992.91 992.67 992.81 993.15 993.88 992.82 994.52 996.46 997.80 998.69 999.21 999.94 1000.23 1001.24 1002.60 1003.62 1004.95 1006.31 1007.65 1008.39 1009.05 1009.61 1010.23 1010.91 1011.40 1011.89 1012.33 1012.75 1013.20 1013.55 1013.87 1014.04 1014.15 1014.15 1014.12
1002.10 1000.69 997.90 995.56 994.45 994.26 994.63 994.25 993.82 993.68 993.53 993.65 995.51 997.61 996.35 996.83 998.59 999.64 999.78 1000.67 1001.33 1001.84 1002.65 1003.47 1004.69 1006.02 1007.13 1008.20 1009.15 1009.88 1010.37 1010.93 1011.47 1012.02 1012.47 1012.95 1013.40 1013.78 1014.02 1014.22 1014.35 1014.34 1014.34 1014.18
1002.79 1000.98 998.39 995.72 994.80 995.42 996.07 995.01 993.85 993.49 994.31 994.90 997.31 999.58 999.81 999.99 1000.17 1000.37 1000.91 1001.34 1002.05 1002.81 1003.71 1004.89 1006.10 1007.22 1008.19 1009.09 1009.83 1010.40 1010.91 1011.39 1011.85 1012.37 1012.94 1013.41 1013.83 1014.13 1014.37 1014.49 1014.54 1014.58 1014.55 1014.40
1001.97 1000.32 998.35 996.77 996.11 995.31 995.07 994.98 993.97 993.89 994.54 996.47 998.50 1000.41 1000.92 1002.01 1001.78 1001.14 1001.60 1002.50 1003.03 1004.19 1005.21 1006.27 1007.34 1008.45 1009.39 1010.21 1010.75 1011.23 1011.61 1012.08 1012.47 1012.89 1013.35 1013.69 1014.09 1014.36 1014.60 1014.68 1014.77 1014.86 1014.79 1014.93
1001.67 1000.11 997.87 996.71 996.45 996.01 995.75 995.41 995.25 994.41 995.25 996.27 999.69 1001.73 1002.61 1003.48 1003.41 1002.76 1002.85 1003.63 1004.63 1005.78 1006.81 1007.83 1008.79 1009.78 1010.74 1011.48 1012.03 1012.42 1012.65 1012.86 1013.12 1013.43 1013.72 1013.99 1014.21 1014.55 1014.73 1014.81 1014.95 1015.25 1015.48 1015.66
1001.84 1000.16 997.99 997.23 996.93 997.45 996.97 995.75 995.67 994.73 997.33 998.60 1000.09 1001.98 1003.00 1004.09 1004.50 1004.44 1004.67 1005.51 1006.47 1007.47 1008.31 1009.27 1010.22 1011.23 1012.11 1012.62 1012.92 1013.08 1013.21 1013.38 1013.57 1013.83 1014.22 1014.45 1014.59 1014.83 1014.91 1015.07 1015.60 1015.96 1015.98 1016.08
1001.26 1000.05 999.13 997.99 997.71 997.25 996.23 997.10 995.97 996.22 997.80 999.33 1001.41 1003.43 1004.50 1005.22 1005.73 1005.95 1006.38 1006.91 1007.97 1008.87 1009.86 1010.83 1011.83 1012.73 1013.23 1013.40 1013.45 1013.55 1013.65 1013.84 1014.22 1014.54 1014.89 1015.04 1015.16 1015.37 1015.58 1015.97 1016.36 1016.42 1016.28 1016.19
1001.13 1000.13 999.37 998.99 998.99 998.35 999.11 1000.85 999.01 998.85 1000.31 1001.09 1002.11 1004.09 1005.57 1005.99 1006.99 1007.67 1007.77 1008.53 1009.41 1010.32 1011.33 1012.43 1013.36 1013.94 1014.18 1014.15 1014.16 1014.21 1014.39 1014.61 1014.84 1015.28 1015.76 1015.79 1015.91 1016.23 1016.48 1016.71 1016.97 1016.85 1016.61 1016.52
1001.10 1000.85 999.87 1000.05 1001.26 1001.60 1003.49 1003.27 1001.24 1000.68 1002.84 1003.42 1003.42 1005.17 1005.73 1007.03 1007.91 1009.64 1009.68 1010.37 1011.20 1012.15 1013.19 1013.98 1014.66 1015.04 1014.98 1014.89 1014.85 1014.98 1015.33 1015.51 1015.69 1015.99 1016.29 1016.58 1016.81 1016.89 1017.05 1017.29 1017.24 1017.13 1016.87 1016.77
1002.73 1002.47 1002.59 1002.41 1003.62 1005.14 1005.17 1003.57 1002.99 1003.09 1005.03 1005.19 1005.19 1005.73 1006.78 1008.07 1009.36 1010.23 1010.99 1012.26 1013.27 1014.19 1014.85 1015.28 1015.70 1015.83 1015.74 1015.74 1015.91 1016.10 1016.38 1016.58 1016.61 1016.69 1016.86 1017.25 1017.36 1017.21 1017.46 1017.71 1017.59 1017.39 1017.10 1016.98
1006.71 1006.22 1005.84 1005.55 1006.51 1008.19 1007.48 1004.57 1002.99 1003.90 1005.33 1006.13 1006.51 1006.85 1007.93 1009.52 1010.51 1011.80 1012.84 1013.90 1015.14 1015.71 1016.17 1016.35 1016.51 1016.72 1016.67 1016.80 1016.97 1017.25 1017.45 1017.62 1017.63 1017.63 1017.83 1018.15 1018.11 1018.05 1018.01 1018.01 1017.86 1017.69 1017.35 1017.23
1009.35 1009.85 1009.79 1010.39 1011.43 1011.56 1009.97 1007.17 1005.18 1005.52 1005.65 1007.81 1008.09 1008.65 1009.25 1010.61 1011.95 1013.13 1014.53 1015.31 1015.85 1016.39 1016.59 1016.87 1017.25 1017.42 1017.98 1018.11 1018.10 1018.12 1018.38 1018.27 1018.29 1018.43 1018.71 1018.99 1018.89 1018.81 1018.67 1018.47 1018.25 1018.04 1017.92 1017.98
1011.71 1011.67 1011.70 1012.58 1013.22 1012.41 1011.37 1009.70 1008.24 1007.56 1008.05 1009.21 1009.46 1010.12 1010.98 1012.20 1013.77 1014.74 1015.89 1016.41 1016.74 1017.08 1017.25 1017.44 1017.82 1018.36 1018.37 1018.78 1018.91 1019.11 1019.26 1019.10 1019.06 1019.18 1019.55 1019.66 1019.60 1019.44 1019.33 1019.35 1019.09 1019.26 1019.75 1019.48
1014.84 1013.90 1013.87 1014.19 1014.09 1013.80 1013.62 1012.94 1011.66 1010.29 1010.21 1010.25 1010.93 1011.77 1012.81 1014.01 1014.99 1015.67 1016.39 1017.33 1017.21 1018.04 1018.20 1018.44 1018.52 1018.65 1018.91 1019.30 1019.53 1019.89 1020.17 1020.15 1019.84 1020.11 1020.41 1020.65 1020.43 1020.41 1020.49 1020.86 1020.80 1020.83 1021.69 1021.54
1016.37 1015.89 1015.49 1016.01 1016.17 1015.83 1015.87 1015.36 1014.30 1013.06 1013.07 1012.99 1013.19 1013.93 1014.77 1015.27 1015.88 1016.54 1016.93 1017.57 1018.18 1018.82 1019.15 1019.29 1019.30 1019.15 1019.21 1019.59 1020.15 1020.53 1020.98 1021.08 1020.94 1021.30 1021.43 1021.57 1021.31 1021.31 1021.32 1021.25 1021.55 1022.04 1022.24 1022.33
Wind_Speed
24 18 22 30 31 27 26 25 28 25 26 23 25 24 23 17 20 21 20 17 17 15 14 13 9 12 17 15 17 13 11 16 11 9 8 7 6 4 2 1 4 6 4 3
20 22 28 27 30 31 30 29 26 25 26 28 24 24 22 23 17 20 20 19 18 16 16 15 13 11 18 9 9 10 10 11 9 7 7 6 7 3 3 3 5 5 4 3
21 28 29 30 31 31 30 29 24 24 27 24 20 19 22 23 22 16 18 19 19 18 17 15 15 11 13 18 10 1 9 10 7 7 4 3 5 4 3 4 3 3 6 5
14 25 29 29 28 31 29 28 26 26 18 17 22 15 19 21 22 17 16 17 17 18 16 15 17 13 15 16 19 19 13 11 10 9 8 8 6 6 4 5 4 5 6 6
10 19 28 30 30 29 26 29 28 28 17 22 21 14 18 21 21 22 17 14 18 17 14 14 17 14 15 11 14 12 11 12 9 7 8 7 6 6 6 6 9 8 5 7
25 23 20 25 30 30 24 27 31 25 18 16 18 16 19 23 28 21 19 17 16 19 19 17 15 13 13 13 12 11 10 9 10 6 6 6 8 9 9 9 8 7 7 5
16 24 22 20 19 31 30 22 17 15 13 10 22 21 13 23 22 22 20 18 16 17 19 17 19 16 19 15 13 12 9 8 8 8 6 7 8 9 11 7 5 8 7 6
11 17 26 17 19 18 31 23 8 22 13 19 21 20 21 11 19 23 21 17 15 16 15 15 18 14 20 16 14 12 8 12 11 12 10 7 8 7 7 10 7 7 7 6
10 15 20 22 18 24 29 24 23 15 18 15 18 16 13 5 17 22 22 18 17 14 18 14 16 14 17 16 16 13 14 10 9 8 9 12 12 13 8 9 9 6 5 5
7 9 19 20 15 21 24 22 21 14 21 16 22 18 13 14 11 19 20 17 15 18 20 17 18 20 17 20 17 14 14 13 12 13 11 11 13 11 10 9 9 7 5 4
2 7 16 17 12 18 16 15 17 17 14 13 10 17 19 20 17 18 18 15 14 17 18 19 19 18 18 18 13 13 13 13 13 13 12 11 11 10 9 8 7 5 4 3
5 5 11 22 15 17 17 18 23 11 20 4 6 8 22 26 22 19 17 15 17 17 20 19 18 19 18 15 13 11 12 13 12 12 11 11 10 9 8 6 5 5 4 4
6 3 5 11 19 19 10 22 19 23 12 13 6 1 10 22 18 18 21 20 16 16 18 17 17 16 16 15 13 12 12 12 12 12 11 10 9 8 7 6 5 5 4 5
1 4 11 9 12 10 22 19 25 22 10 2 5 8 12 17 19 18 21 20 21 17 19 18 16 16 15 14 13 12 12 11 11 11 10 9 8 7 6 5 5 5 5 5
9 9 14 13 16 18 18 22 19 23 20 7 13 15 15 15 17 20 18 20 21 20 19 18 16 15 15 13 12 11 11 10 10 10 9 8 7 7 7 5 5 4 5 9
4 6 11 10 8 9 16 18 17 24 16 10 22 15 16 16 13 16 19 20 19 18 17 18 17 16 14 12 11 9 9 9 9 9 9 7 6 7 5 4 5 8 7 8
3 5 3 6 13 12 5 20 17 14 17 13 18 15 19 17 16 16 18 18 19 19 18 18 16 14 12 11 9 9 9 9 9 9 9 7 7 7 6 7 9 6 6 5
4 4 2 1 4 1 7 22 15 12 15 20 25 17 16 17 16 17 17 19 19 19 18 16 14 12 10 10 9 9 9 9 10 10 9 8 7 7 8 9 7 6 5 5
9 5 4 4 4 1 14 18 2 4 13 26 29 24 20 21 16 14 17 18 18 18 15 14 13 12 9 9 9 9 10 10 10 10 8 9 8 8 8 6 5 5 5 6
6 10 5 8 4 4 5 16 17 11 8 15 26 24 23 20 16 11 18 20 19 17 15 14 13 11 10 9 9 11 11 10 10 8 8 9 8 6 6 5 5 4 4 4
8 5 4 6 6 5 15 24 20 1 8 9 21 22 20 16 14 18 20 19 17 14 13 13 12 12 9 9 10 11 11 10 8 9 8 8 7 4 7 5 4 4 4 4
7 6 5 4 5 4 21 16 6 11 19 12 15 11 24 22 21 19 19 18 16 14 12 12 12 12 10 9 11 12 11 9 9 9 10 9 7 8 5 4 4 4 4 2
7 8 4 8 5 7 13 11 13 15 22 15 14 17 22 21 20 18 16 15 13 13 12 12 12 13 11 12 11 11 10 9 7 8 8 8 7 7 7 7 6 5 7 5
11 16 5 2 6 12 18 21 19 17 19 19 17 18 21 21 19 19 14 11 11 12 11 12 12 12 12 11 11 11 10 9 9 9 9 7 7 8 7 6 7 9 8 7
6 11 5 3 5 6 18 17 15 20 18 20 19 19 19 19 18 15 15 11 14 12 11 10 11 9 11 11 11 12 11 10 8 9 9 9 5 7 6 8 7 8 7 8
7 5 5 4 6 6 7 10 13 21 18 17 20 19 17 17 16 14 12 12 12 12 11 10 9 8 10 11 11 10 11 10 10 9 7 7 6 5 6 4 5 11 9 6
Wind_Direction
223 244 224 218 230 231 218 222 223 222 221 224 213 225 216 227 214 199 204 212 212 217 206 206 196 170 173 175 164 162 139 136 152 160 161 174 183 204 177 190 191 121 193 207
225 226 249 217 228 227 235 220 219 219 216 215 216 215 219 224 237 203 195 200 205 207 206 196 184 162 173 105 121 125 151 147 153 156 171 158 169 195 184 90 105 120 165 132
241 221 228 238 215 224 228 234 227 218 221 202 210 207 222 223 218 216 198 193 199 198 203 192 164 153 160 142 155 116 186 155 150 156 158 147 127 129 128 149 120 85 70 67
237 256 221 235 233 218 220 227 236 242 204 212 188 208 205 221 207 198 189 191 184 190 199 184 157 164 157 152 157 169 161 151 166 186 153 159 145 158 162 138 108 84 80 63
217 253 235 214 228 234 221 213 228 238 240 222 191 215 204 212 207 185 184 193 184 180 181 193 152 164 169 155 143 137 143 161 167 158 153 161 159 124 113 122 122 99 58 57
261 239 263 210 215 236 235 212 217 230 241 214 190 195 231 188 210 185 184 184 187 175 181 176 153 153 135 126 123 122 128 155 159 155 142 152 132 141 138 134 145 138 115 74
249 240 233 250 265 211 231 233 196 203 223 181 213 192 233 203 194 187 183 177 192 171 176 163 159 156 134 132 137 135 132 134 112 105 110 112 112 110 124 150 136 124 116 102
230 214 221 210 239 233 214 223 213 192 168 206 219 222 224 269 209 181 170 176 176 161 160 136 130 120 123 133 125 112 98 83 94 93 94 91 94 88 64 51 62 81 87 87
225 251 191 199 215 214 210 216 200 219 190 206 184 193 85 66 158 166 153 174 167 156 120 120 122 131 106 94 97 99 98 103 94 94 85 74 76 75 81 74 74 60 86 137
325 274 192 189 204 251 236 192 200 230 187 213 191 149 145 134 101 135 130 110 98 91 97 96 97 83 83 89 94 101 102 101 94 91 87 81 82 81 80 78 79 79 67 71
327 283 190 179 188 220 207 227 203 221 227 210 180 168 151 140 125 98 95 99 112 117 123 99 95 96 93 90 103 107 108 104 98 96 97 96 96 91 85 79 79 86 86 52
221 308 260 186 197 221 203 223 204 203 224 317 358 144 151 136 138 136 131 114 104 102 104 111 113 112 105 117 114 110 107 104 102 102 100 97 94 90 83 81 71 74 49 47
354 256 240 236 189 206 189 222 196 230 235 215 139 94 310 107 120 134 142 128 126 126 128 123 114 117 114 108 108 113 116 113 111 109 102 94 91 85 81 74 58 47 28 43
234 263 264 210 198 191 194 258 204 213 231 266 25 152 114 123 138 148 130 142 146 132 116 114 111 110 113 112 112 109 110 108 102 99 95 91 86 84 75 67 52 41 29 37
187 238 233 240 225 210 180 223 216 207 219 166 152 142 139 138 137 131 121 113 116 112 108 109 108 106 104 101 95 90 85 89 93 93 93 100 98 80 71 59 60 44 40 39
321 282 218 203 134 247 193 219 238 235 199 200 155 139 135 133 128 121 118 120 115 113 110 108 107 107 106 102 98 92 91 89 83 87 82 76 75 80 67 61 67 52 44 48
282 300 264 180 147 195 254 224 215 204 108 165 158 135 135 134 135 128 124 121 122 120 115 113 105 99 97 98 99 97 95 87 83 82 76 64 66 65 51 55 56 35 49 54
238 253 73 228 117 88 156 214 215 74 84 117 116 130 134 133 125 127 123 121 115 108 104 101 101 102 97 95 90 92 88 86 82 70 55 57 51 51 53 55 47 23 5 49
206 296 133 119 136 198 64 11 354 92 106 138 132 133 136 132 133 101 106 104 104 103 99 98 96 94 88 90 90 89 80 73 67 65 51 46 53 54 57 54 41 9 10 17
147 255 305 149 104 125 8 333 340 87 77 135 133 139 138 128 109 103 93 89 88 95 103 104 97 91 77 66 71 74 68 62 59 57 62 55 51 60 59 48 35 5 356 44
0 349 77 93 93 67 343 323 269 230 141 146 133 126 129 114 106 109 102 94 95 94 90 95 90 85 75 76 77 71 65 57 40 46 58 56 39 346 73 49 20 11 336 54
11 332 17 322 80 38 346 324 44 125 121 119 119 105 113 117 111 108 107 110 117 120 107 93 90 79 59 64 75 69 59 47 40 47 44 34 13 19 55 52 14 309 2 47
29 354 26 28 51 309 327 354 72 124 114 109 101 117 117 115 114 111 109 108 104 112 110 98 92 83 75 64 61 64 42 42 48 55 51 34 16 24 19 25 343 43 20 12
357 12 53 199 352 16 16 25 32 87 105 113 126 118 112 111 112 106 104 114 111 91 83 86 85 85 76 67 65 58 42 35 45 49 49 30 30 23 32 23 31 47 26 3
352 311 353 85 0 316 22 30 37 64 75 94 95 98 103 115 115 118 117 114 87 81 77 78 78 79 83 73 62 56 45 33 44 51 44 21 25 26 37 56 19 84 57 36
348 332 349 50 12 61 20 36 51 67 64 78 96 100 107 109 106 95 95 91 91 90 88 83 77 69 76 76 65 57 55 45 46 48 41 25 17 44 23 21 78 51 94 82